sat.trackr.live / text

‹ back to catalog

STARLINK-36120

NORAD 67016 · 2025-293P

PAYLOAD ACTIVE UNKNOWN

§ Identity

Operator
Country
US
Launch date
2025-12-10
Launch site
AFWTR
Launch vehicle
Mass (kg)
RCS (m²)

Purposes: comms

External: N2YO · Heavens-Above · Gunter

§ Orbital elements

Epoch: 2026-09-20T22:31:40.535904Z

Period
96.11 min
Inclination
70.0013°
Eccentricity
0.0003178
Mean motion
14.98299053 rev/d
Perigee alt
569.9 km
Apogee alt
574.4 km
Semi-major
6,950.3 km
B*
-8.3532e-4
RAAN
322.1870°
Arg perigee
266.9146°
Mean anomaly
93.1649°
Rev number
4,413

§ Raw data

STARLINK-361201 67016U 25293P   26263.93866361 -.00010038  00000+0 -83532-3 0  99992 67016  70.0013 322.1870 0003178 266.9146  93.1649 14.98299053 44133

JSON: /api/v1/satellites/67016 · /tle

For live sub-satellite position, see the globe view (requires WebGL).

§ Visibility from observer

Set your observer location to see the next 7 days of passes ≥ 10°. The values pass through the URL so the page stays shareable.

No JS? Fill the form by hand. The geolocation button needs JavaScript.